Zurück zum Katalog

STARLINK-33728

AktivKommunikationVLEO
NORAD 63715·PAYLOAD·🇺🇸 United States

Gestartet Apr 28, 2025 von Vandenberg Space Force Base

Loading…

Nächste Überflüge (nächste 24 Stunden)

TLE

AktuellSource: CelesTrak SupGP

Epoche: Sep 15, 2026, 03:15 UTC

1 63715C 25087U   26258.13590278 -.00019576  00000+0 -57827-3 0  2581
2 63715  53.1607  58.7522 0001110  76.9914  28.1535 15.34406618    17

Verfolge STARLINK-33728 in Echtzeit mit AllMySat

Download on the App Store